Flag for U.S.A. Weather past 2 weeks in Peoria, Illinois, U.S.A.

Now
6 °F

Clear.


Feels Like: -6 °F
Forecast: 3 / 33 °F
Wind: 7 mph from South

Location: Greater Peoria Regional Airport

Current Time: Mar 6, 2015 at 5:54:56 AM

Latest Report: Mar 6, 2015 at 4:54 AM


Visibility: 10 mi

Pressure: 30.54 "Hg

Humidity: 73%

Dew point: -1 °F

Location of PeoriaLocation

Historic Weather in Peoria — Graph

°F

Peoria temperature yesterday

Maximum temperature yesterday: 16 °F (at 2:54 PM)
Minimum temperature yesterday: 4 °F (at 11:54 PM)
Average temperature yesterday: 11 °F

Past Weeks' High & Low Weather Summary

 TemperatureHumidityPressure
High39 °F (Mar 3, 2:54 PM)92% (Mar 3, 10:01 AM)30.82 "Hg (Mar 3, 10:01 AM)
Low-7 °F (Feb 27, 6:54 AM)38% (Feb 19, 3:54 PM)29.73 "Hg (Mar 3, 12:01 PM)
Average18 °F64%30.33 "Hg
* Reported Feb 19 4:54 AM — Mar 6 4:54 AM, Peoria, Weather by CustomWeather, © 2015

Note: Actual official high and low records may vary slightly from our data, if they occured in-between our weather recording intervals... More about our weather records

Advertising

Peoria weather history for previous 24 hours

 ConditionsComfort  
Time TempWeatherWind HumidityBarometerVisibility
4:54 AM
Fri, Mar 6
6 °FClear.7 mph73%30.54 "Hg10 mi
3:54 AM6 °FClear.8 mph73%30.53 "Hg10 mi
2:54 AM5 °FClear.5 mph76%30.56 "Hg10 mi
1:54 AM5 °FClear.3 mph72%30.57 "Hg10 mi
12:54 AM4 °FClear.No wind69%30.58 "Hg10 mi
11:54 PM
Thu, Mar 5
4 °FClear.No wind73%30.59 "Hg10 mi
10:54 PM5 °FClear.No wind69%30.61 "Hg10 mi
9:54 PM7 °FClear.No wind63%30.63 "Hg10 mi
8:54 PM8 °FClear.No wind63%30.63 "Hg10 mi
7:54 PM10 °FClear.3 mph58%30.63 "Hg10 mi
6:54 PM12 °FClear.3 mph56%30.63 "Hg10 mi
5:54 PM13 °FClear.6 mph54%30.60 "Hg10 mi
4:54 PM15 °FSunny.8 mph51%30.60 "Hg10 mi
3:54 PM16 °FSunny.8 mph49%30.59 "Hg10 mi
2:54 PM16 °FSunny.8 mph49%30.58 "Hg10 mi
1:54 PM15 °FSunny.9 mph49%30.58 "Hg10 mi
12:54 PM14 °FSunny.12 mph49%30.59 "Hg10 mi
11:54 AM13 °FSunny.8 mph51%30.60 "Hg10 mi
10:54 AM12 °FSunny.10 mph48%30.60 "Hg10 mi
9:54 AM11 °FSunny.8 mph56%30.58 "Hg10 mi
8:54 AM9 °FSunny.8 mph61%30.57 "Hg10 mi
7:54 AM7 °FSunny.7 mph63%30.55 "Hg10 mi
6:54 AM7 °FSunny.5 mph63%30.52 "Hg10 mi
5:54 AM8 °FClear.6 mph63%30.51 "Hg10 mi
Weather by CustomWeather, © 2015

See weather overviewHow to use our weather pages